SCP
0 0 -0 -0 -0 -0 -0 0 0 0 0 0 0 0 0 0 0 0 0 0 0 0 0 0 0 0 0 0 0 0 0 0 0 0 0 0 0 0 0 0 0 0 0
0 0 0 -0 -0 -0 -0 0 0 0 0 0 0 0 0 0 0 0 0 0 0 0 0 0 0 0 0 0 0 0 0 0 0 0 0 0 0 0 0 0 0 0 0
0 0 0 0 -0 -0 -0 0 0 0 0 0 0 0 0 0 0 0 0 0 0 0 0 0 0 0 0 0 0 0 0 0 0 0 0 0 0 0 0 0 0 0 0
-0 0 0 -0 -0 -0 -0 -0 -0 0 0 0 0 0 0 0 0 0 0 0 0 0 0 0 0 0 0 0 0 0 0 0 0 0 0 0 0 0 0 0 0 0 0
-0 -0 0 -0 -0 -0 0 0 -0 -0 0 0 0 0 0 0 0 0 0 0 0 0 0 0 0 0 0 0 0 0 0 0 0 0 0 0 0 0 0 0 0 0 0
-0 -0 -0 -0 -0 0 -0 0 0 -0 -0 0 0 0 0 0 0 0 0 0 0 0 0 0 0 0 0 0 0 0 0 0 0 0 0 0 0 0 0 0 0 0 0
-0 -0 -0 -0 -0 -0 0 -0 0 0 0 -0 0 0 0 0 0 0 0 0 0 0 0 0 0 0 0 0 0 0 0 0 0 0 0 0 0 0 0 0 0 0 0
-0 -0 -0 -0 -0 -0 0 0 -0 -0 -0 -0 0 0 0 0 0 0 0 0 0 0 0 0 0 0 0 0 0 0 0 0 0 0 0 0 0 0 0 0 0 0 0
-0 -0 -0 -0 -0 -0 -0 0 0 -0 -0 0 0 0 0 0 0 0 0 0 0 0 0 0 0 0 0 0 0 0 0 0 0 0 0 0 0 0 0 0 0 0 0
-0 -0 -0 -0 -0 -0 0 -0 0 0 0 0 0 0 0 0 0 0 0 0 0 0 0 0 0 0 0 0 0 0 0 0 0 0 0 0 0 0 0 0 0 0 0
-0 -0 -0 -0 -0 -0 -0 -0 0 -0 0 0 0 0 0 0 0 0 0 0 0 0 0 0 0 0 0 0 0 0 0 0 0 0 0 0 0 0 0 0 0 0 0
-0 -0 -0 -0 -0 -0 -0 -0 0 0 -0 0 0 0 0 0 0 0 0 0 0 0 0 0 0 0 0 0 0 0 0 0 0 0 0 0 0 0 0 0 0 0 0
-0 -0 -0 -0 -0 -0 -0 -0 0 0 0 0 0 0 0 0 0 0 0 0 0 0 0 0 0 0 0 0 0 0 0 0 0 0 0 0 0 0 0 0 0 0 0
-0 -0 -0 -0 -0 -0 -0 -0 -0 0 0 0 0 0 0 0 0 0 0 0 0 0 0 0 0 0 0 0 0 0 0 0 0 0 0 0 0 0 0 0 0 0 0
-0 -0 -0 -0 -0 -0 -0 -0 -0 -0 -0 -0 -0 -0 0 0 0 0 0 0 0 0 0 0 0 0 0 0 0 0 0 0 0 0 0 0 0 0 0 0 0 0 0
-0 -0 -0 -0 -0 -0 -0 -0 -0 -0 -0 0 0 -0 -0 -0 0 0 0 0 0 0 0 0 0 0 0 0 0 0 0 0 0 0 0 0 0 0 0 0 0 0 0
0 -0 -0 -0 -0 -0 -0 -0 -0 -0 -0 -0 0 -0 0 0 0 0 0 0 0 0 0 0 0 0 0 0 0 0 0 0 0 0 0 0 0 0 0 0 0 0 0
0 -0 -0 -0 -0 -0 -0 -0 -0 -0 -0 -0 -0 -0 0 0 0 0 0 0 0 0 0 0 0 0 0 0 0 0 0 0 0 0 0 0 0 0 0 0 0 0 0
0 0 -0 -0 -0 -0 -0 -0 -0 -0 -0 -0 -0 -0 0 0 0 0 0 -0 0 0 0 0 0 0 0 0 0 0 0 0 0 0 0 0 0 0 0 0 0 0 0
0 0 0 -0 -0 -0 -0 -0 -0 -0 -0 -0 -0 -0 -0 0 0 0 0 0 0 0 0 0 0 0 0 0 0 0 0 0 0 0 0 0 0 0 0 0 0 0 0
0 0 0 0 0 -0 -0 -0 -0 -0 -0 -0 -0 -0 -0 -0 -0 0 0 0 0 0 0 0 0 0 0 0 0 0 0 0 0 0 0 0 0 0 0 0 0 0 0
0 0 0 0 0 0 0 0 -0 -0 -0 -0 -0 -0 -0 -0 -0 -0 0 0 0 0 0 0 0 0 0 0 0 0 0 0 0 0 0 0 0 0 0 0 0 0 0
0 0 0 0 0 0 0 0 0 0 0 0 0 -0 -0 -0 -0 -0 0 0 0 0 0 0 0 0 0 0 0 0 0 0 0 0 0 0 0 0 0 0 0 0 0
0 0 0 0 0 0 0 0 0 0 0 0 0 -0 -0 -0 0 0 0 0 0 0 0 0 0 0 0 0 0 0 0 0 0 0 0 0 0 0 0 0 0 0 0
0 0 0 0 0 0 0 0 0 0 0 0 0 0 -0 -0 -0 -0 -0 -0 0 0 0 0 0 0 0 0 0 0 0 0 0 0 0 0 0 0 0 0 0 0 0
0 0 0 0 0 0 0 0 0 0 0 0 0 0 -0 -0 -0 -0 0 -0 -0 -0 0 0 0 0 0 0 0 0 0 0 0 0 0 0 0 0 0 0 0 0 0
Wind_Speed_500mb
78 76 78 79 69 67 77 82 76 61 45 32 14 32 50 65 74 71 85 100 75 57 126 128 130 125 120 130 131 126 119 109 97 78 68 81 88 73 84 84 80 74 70
73 69 72 78 73 68 67 75 75 68 56 50 32 3 32 60 67 83 98 85 93 61 65 132 133 131 120 123 133 133 131 126 110 100 88 69 64 66 66 64 78 77 71
67 62 69 76 75 69 65 63 64 69 63 58 56 41 19 20 69 77 77 98 115 73 43 118 129 129 125 121 131 134 130 130 121 99 92 85 76 69 62 60 65 65 69
61 56 61 74 71 64 63 58 60 59 68 63 56 56 51 21 24 56 65 71 69 51 72 51 116 121 125 125 135 136 131 128 127 119 97 97 93 87 78 72 70 72 76
62 61 57 71 63 62 64 62 58 59 57 59 58 57 65 53 28 26 40 61 48 56 63 54 32 51 107 124 140 138 125 124 117 121 106 100 100 95 90 87 82 78 79
65 71 57 62 59 60 63 66 63 63 64 61 61 61 71 60 50 25 28 40 42 59 53 49 40 36 29 90 117 120 138 138 121 119 113 113 107 102 98 97 91 89 89
67 70 58 60 57 59 61 66 62 63 61 60 55 59 64 67 48 39 38 40 30 35 26 29 35 38 46 55 50 106 113 118 114 114 109 107 109 106 104 100 95 93 94
66 67 58 59 58 60 56 59 61 56 57 59 59 58 61 60 56 45 33 40 31 28 17 13 17 45 54 54 54 44 94 110 99 92 93 93 97 99 101 101 101 98 97
67 64 60 61 61 57 60 58 57 59 57 57 58 59 61 63 63 53 43 38 38 33 18 11 13 7 22 42 46 49 56 90 99 101 92 75 81 84 84 83 92 88 93
63 58 58 63 63 64 61 58 57 60 59 59 57 55 57 59 60 64 53 46 43 30 20 12 10 10 6 11 21 35 38 56 82 95 96 94 88 83 81 82 83 86 85
54 48 53 60 60 59 59 53 55 58 60 60 59 56 54 56 58 57 58 50 43 33 26 17 11 9 8 5 5 9 24 42 59 59 78 95 99 95 91 92 93 93 92
47 48 50 53 51 54 55 53 57 60 62 64 64 63 63 62 60 59 53 45 43 36 27 22 18 10 9 7 4 5 11 15 32 52 68 69 83 95 101 103 102 105 102
51 53 51 54 53 52 48 48 53 55 59 60 57 54 59 63 61 60 58 51 42 36 30 28 26 20 13 10 12 9 11 12 12 15 29 52 68 85 88 90 98 103 105
48 50 55 57 57 56 50 47 46 47 50 51 55 57 60 59 57 61 58 52 43 41 44 36 27 25 20 16 14 12 13 14 14 12 14 19 25 39 71 82 83 97 96
46 49 49 53 54 56 48 46 44 43 44 46 53 54 58 58 52 47 47 48 47 44 39 36 41 36 27 21 17 17 12 12 11 12 15 19 21 21 22 34 55 73 81
45 46 45 46 51 53 51 50 43 45 42 41 41 50 51 47 47 46 47 43 40 41 39 43 42 37 35 34 30 22 18 16 11 13 18 18 18 22 21 23 23 17 31
47 47 49 48 45 48 49 50 56 51 45 50 50 56 54 53 55 49 47 40 41 41 43 40 35 34 33 31 28 28 27 27 20 19 18 18 18 18 21 25 24 25 27
45 50 51 46 45 45 44 45 45 51 57 59 57 55 57 50 49 47 47 46 53 49 46 42 39 34 33 32 31 30 28 26 25 22 22 22 18 21 20 19 23 27 25
45 50 49 49 47 44 45 49 49 49 50 51 55 56 58 55 52 51 50 53 53 53 47 44 41 37 35 34 32 29 30 28 27 26 20 22 24 26 23 24 26 25 30
43 44 45 46 48 49 51 51 53 50 50 53 54 54 55 57 60 58 53 50 50 47 48 46 43 42 40 37 35 33 32 30 28 27 27 25 23 26 28 25 24 29 31
42 41 41 41 44 47 49 50 51 50 49 51 51 49 46 48 50 53 54 50 44 43 43 45 47 45 43 40 38 37 35 34 32 30 29 28 25 25 25 28 26 25 23
38 40 39 37 38 40 43 46 46 48 49 49 50 51 48 46 46 47 47 47 45 41 42 42 43 45 47 47 46 44 42 40 37 34 33 32 29 28 26 26 29 29 31
31 36 39 38 34 35 36 40 42 43 44 45 47 50 52 50 47 46 47 48 47 45 43 43 43 42 41 44 45 46 47 46 41 37 37 34 36 35 32 29 27 30 33
29 33 31 33 37 35 32 35 37 39 41 42 43 45 48 50 53 51 48 48 49 46 43 41 42 43 43 41 42 45 46 48 45 40 37 36 36 35 36 36 34 30 29
31 31 30 29 32 38 31 31 33 35 38 39 41 43 44 45 47 49 50 48 45 46 45 42 42 44 44 44 43 43 46 47 47 45 39 36 35 33 34 37 37 36 31
29 30 31 30 30 35 36 34 33 34 36 38 38 40 42 45 46 46 47 48 49 47 46 47 48 48 48 47 46 44 40 43 46 47 45 39 35 31 31 33 34 35 37
Wind_Direction_500mb
355 358 1 5 10 12 15 7 1 7 17 359 294 246 230 225 233 228 223 217 256 243 220 216 220 217 218 222 224 226 227 227 230 234 240 237 234 233 234 232 233 231 232
354 354 358 0 5 12 13 15 4 1 22 26 27 316 228 224 220 225 224 222 221 270 259 220 219 218 217 222 226 228 229 231 230 232 235 236 236 236 239 237 234 234 233
352 354 357 360 3 7 10 13 11 4 7 31 34 31 44 208 211 215 211 215 210 242 286 222 217 217 215 216 226 229 230 233 232 230 231 235 240 241 242 240 234 234 232
358 358 359 360 0 5 6 13 15 15 5 15 25 34 27 45 177 203 207 206 194 210 245 241 214 219 216 217 224 229 229 229 231 232 230 233 237 240 242 243 241 236 230
4 1 359 354 1 4 7 8 15 21 24 15 21 27 14 37 70 135 174 199 192 211 228 247 208 190 212 217 227 228 224 225 228 231 226 229 233 237 237 242 243 239 234
2 1 357 356 4 6 10 8 13 17 21 24 17 12 14 25 49 74 125 126 165 199 219 243 253 245 245 220 214 224 234 232 226 231 230 233 234 238 243 244 242 237 235
359 360 359 0 4 11 10 11 15 18 21 21 23 20 13 20 40 52 73 103 129 155 181 211 228 245 251 245 227 214 224 235 237 236 235 237 238 237 241 240 239 239 241
358 357 2 5 9 8 15 13 15 22 23 22 26 24 20 20 34 46 59 78 81 99 132 134 202 231 248 255 255 245 220 223 229 232 238 242 246 246 244 246 247 252 252
358 358 1 1 5 14 12 11 15 19 24 23 24 24 19 19 25 32 51 56 63 63 60 30 42 209 242 237 234 231 237 218 222 228 235 240 244 243 244 243 243 245 248
357 359 359 1 4 6 10 8 12 16 21 23 22 23 14 13 21 23 39 39 48 46 45 36 353 10 287 293 237 226 213 222 220 224 228 230 235 238 240 239 237 239 244
355 358 358 2 5 5 3 7 13 18 21 16 15 16 9 12 18 23 29 32 35 27 30 24 2 288 277 334 333 252 239 231 226 228 233 231 231 237 239 238 240 244 244
355 357 355 359 2 2 1 4 12 15 14 12 7 3 3 11 14 22 26 28 26 15 14 15 5 346 286 303 315 287 275 280 249 237 233 232 234 237 241 241 244 247 248
6 1 0 2 7 5 4 9 12 12 10 4 356 355 359 8 12 14 18 21 25 16 18 14 4 6 10 324 302 293 295 285 264 252 235 230 231 231 235 243 248 246 247
8 6 3 4 6 6 13 11 10 7 6 1 358 359 1 9 11 10 10 13 14 17 25 20 21 28 24 16 2 326 314 298 291 274 258 249 238 231 233 235 240 243 246
7 10 6 4 3 4 4 5 4 8 7 1 1 3 6 8 9 8 10 11 8 14 17 21 29 27 19 32 26 14 351 316 295 286 276 259 255 254 234 227 229 230 233
8 3 5 5 1 358 360 4 13 10 13 10 7 6 10 13 11 13 17 11 9 12 16 21 24 19 16 19 18 20 17 4 342 309 293 285 271 262 255 249 251 229 225
1 6 9 8 4 3 5 4 1 5 12 17 14 10 17 14 16 20 20 22 19 19 22 19 12 4 6 6 7 10 7 358 355 345 319 300 293 278 261 256 256 257 266
3 10 9 9 11 11 9 2 0 1 3 4 10 15 18 18 16 20 19 20 29 29 24 15 10 1 356 353 355 355 349 341 340 342 333 326 315 298 285 263 252 257 253
7 8 4 9 13 13 10 10 8 5 6 2 5 13 18 20 19 20 25 25 21 21 18 19 11 5 357 346 344 346 343 341 337 327 326 324 327 317 296 280 275 263 257
7 3 3 5 6 8 11 11 10 9 7 6 11 12 10 12 18 20 20 21 19 16 15 18 15 14 7 357 348 343 337 333 331 329 326 321 311 304 302 299 287 275 269
352 357 1 1 4 7 9 12 12 13 12 9 9 9 9 15 18 18 17 17 18 14 10 13 14 14 11 4 359 353 350 341 332 323 316 314 313 304 297 297 295 301 288
350 355 0 360 1 3 6 7 7 9 10 9 9 10 10 13 15 17 16 15 15 17 17 10 8 10 9 6 3 357 352 346 338 325 313 302 297 295 293 289 287 287 284
349 350 352 357 359 1 5 3 1 3 5 6 7 8 10 11 9 10 11 12 12 14 17 14 9 5 5 4 4 1 357 349 339 330 321 308 294 286 285 285 284 281 279
340 340 345 346 352 356 358 0 3 2 2 3 4 6 6 6 8 7 7 8 9 11 12 11 10 7 5 2 3 3 357 353 347 338 325 314 300 291 278 278 279 280 282
337 343 344 344 341 349 356 356 358 359 360 2 3 3 4 6 5 5 6 6 6 7 8 7 10 9 6 3 1 359 358 354 352 347 339 325 310 296 284 276 274 276 274
345 343 343 342 340 340 351 353 354 355 357 359 1 2 2 2 3 3 3 2 1 1 2 4 5 5 6 3 3 358 354 353 353 353 350 340 330 312 294 280 271 271 269
Wind_Speed_850mb
78 76 78 79 69 67 77 82 76 61 45 32 14 32 50 65 74 71 85 100 75 57 126 128 130 125 120 130 131 126 119 109 97 78 68 81 88 73 84 84 80 74 70
73 69 72 78 73 68 67 75 75 68 56 50 32 3 32 60 67 83 98 85 93 61 65 132 133 131 120 123 133 133 131 126 110 100 88 69 64 66 66 64 78 77 71
67 62 69 76 75 69 65 63 64 69 63 58 56 41 19 20 69 77 77 98 115 73 43 118 129 129 125 121 131 134 130 130 121 99 92 85 76 69 62 60 65 65 69
61 56 61 74 71 64 63 58 60 59 68 63 56 56 51 21 24 56 65 71 69 51 72 51 116 121 125 125 135 136 131 128 127 119 97 97 93 87 78 72 70 72 76
62 61 57 71 63 62 64 62 58 59 57 59 58 57 65 53 28 26 40 61 48 56 63 54 32 51 107 124 140 138 125 124 117 121 106 100 100 95 90 87 82 78 79
65 71 57 62 59 60 63 66 63 63 64 61 61 61 71 60 50 25 28 40 42 59 53 49 40 36 29 90 117 120 138 138 121 119 113 113 107 102 98 97 91 89 89
67 70 58 60 57 59 61 66 62 63 61 60 55 59 64 67 48 39 38 40 30 35 26 29 35 38 46 55 50 106 113 118 114 114 109 107 109 106 104 100 95 93 94
66 67 58 59 58 60 56 59 61 56 57 59 59 58 61 60 56 45 33 40 31 28 17 13 17 45 54 54 54 44 94 110 99 92 93 93 97 99 101 101 101 98 97
67 64 60 61 61 57 60 58 57 59 57 57 58 59 61 63 63 53 43 38 38 33 18 11 13 7 22 42 46 49 56 90 99 101 92 75 81 84 84 83 92 88 93
63 58 58 63 63 64 61 58 57 60 59 59 57 55 57 59 60 64 53 46 43 30 20 12 10 10 6 11 21 35 38 56 82 95 96 94 88 83 81 82 83 86 85
54 48 53 60 60 59 59 53 55 58 60 60 59 56 54 56 58 57 58 50 43 33 26 17 11 9 8 5 5 9 24 42 59 59 78 95 99 95 91 92 93 93 92
47 48 50 53 51 54 55 53 57 60 62 64 64 63 63 62 60 59 53 45 43 36 27 22 18 10 9 7 4 5 11 15 32 52 68 69 83 95 101 103 102 105 102
51 53 51 54 53 52 48 48 53 55 59 60 57 54 59 63 61 60 58 51 42 36 30 28 26 20 13 10 12 9 11 12 12 15 29 52 68 85 88 90 98 103 105
48 50 55 57 57 56 50 47 46 47 50 51 55 57 60 59 57 61 58 52 43 41 44 36 27 25 20 16 14 12 13 14 14 12 14 19 25 39 71 82 83 97 96
46 49 49 53 54 56 48 46 44 43 44 46 53 54 58 58 52 47 47 48 47 44 39 36 41 36 27 21 17 17 12 12 11 12 15 19 21 21 22 34 55 73 81
45 46 45 46 51 53 51 50 43 45 42 41 41 50 51 47 47 46 47 43 40 41 39 43 42 37 35 34 30 22 18 16 11 13 18 18 18 22 21 23 23 17 31
47 47 49 48 45 48 49 50 56 51 45 50 50 56 54 53 55 49 47 40 41 41 43 40 35 34 33 31 28 28 27 27 20 19 18 18 18 18 21 25 24 25 27
45 50 51 46 45 45 44 45 45 51 57 59 57 55 57 50 49 47 47 46 53 49 46 42 39 34 33 32 31 30 28 26 25 22 22 22 18 21 20 19 23 27 25
45 50 49 49 47 44 45 49 49 49 50 51 55 56 58 55 52 51 50 53 53 53 47 44 41 37 35 34 32 29 30 28 27 26 20 22 24 26 23 24 26 25 30
43 44 45 46 48 49 51 51 53 50 50 53 54 54 55 57 60 58 53 50 50 47 48 46 43 42 40 37 35 33 32 30 28 27 27 25 23 26 28 25 24 29 31
42 41 41 41 44 47 49 50 51 50 49 51 51 49 46 48 50 53 54 50 44 43 43 45 47 45 43 40 38 37 35 34 32 30 29 28 25 25 25 28 26 25 23
38 40 39 37 38 40 43 46 46 48 49 49 50 51 48 46 46 47 47 47 45 41 42 42 43 45 47 47 46 44 42 40 37 34 33 32 29 28 26 26 29 29 31
31 36 39 38 34 35 36 40 42 43 44 45 47 50 52 50 47 46 47 48 47 45 43 43 43 42 41 44 45 46 47 46 41 37 37 34 36 35 32 29 27 30 33
29 33 31 33 37 35 32 35 37 39 41 42 43 45 48 50 53 51 48 48 49 46 43 41 42 43 43 41 42 45 46 48 45 40 37 36 36 35 36 36 34 30 29
31 31 30 29 32 38 31 31 33 35 38 39 41 43 44 45 47 49 50 48 45 46 45 42 42 44 44 44 43 43 46 47 47 45 39 36 35 33 34 37 37 36 31
29 30 31 30 30 35 36 34 33 34 36 38 38 40 42 45 46 46 47 48 49 47 46 47 48 48 48 47 46 44 40 43 46 47 45 39 35 31 31 33 34 35 37
Wind_Direction_850mb
355 358 1 5 10 12 15 7 1 7 17 359 294 246 230 225 233 228 223 217 256 243 220 216 220 217 218 222 224 226 227 227 230 234 240 237 234 233 234 232 233 231 232
354 354 358 0 5 12 13 15 4 1 22 26 27 316 228 224 220 225 224 222 221 270 259 220 219 218 217 222 226 228 229 231 230 232 235 236 236 236 239 237 234 234 233
352 354 357 360 3 7 10 13 11 4 7 31 34 31 44 208 211 215 211 215 210 242 286 222 217 217 215 216 226 229 230 233 232 230 231 235 240 241 242 240 234 234 232
358 358 359 360 0 5 6 13 15 15 5 15 25 34 27 45 177 203 207 206 194 210 245 241 214 219 216 217 224 229 229 229 231 232 230 233 237 240 242 243 241 236 230
4 1 359 354 1 4 7 8 15 21 24 15 21 27 14 37 70 135 174 199 192 211 228 247 208 190 212 217 227 228 224 225 228 231 226 229 233 237 237 242 243 239 234
2 1 357 356 4 6 10 8 13 17 21 24 17 12 14 25 49 74 125 126 165 199 219 243 253 245 245 220 214 224 234 232 226 231 230 233 234 238 243 244 242 237 235
359 360 359 0 4 11 10 11 15 18 21 21 23 20 13 20 40 52 73 103 129 155 181 211 228 245 251 245 227 214 224 235 237 236 235 237 238 237 241 240 239 239 241
358 357 2 5 9 8 15 13 15 22 23 22 26 24 20 20 34 46 59 78 81 99 132 134 202 231 248 255 255 245 220 223 229 232 238 242 246 246 244 246 247 252 252
358 358 1 1 5 14 12 11 15 19 24 23 24 24 19 19 25 32 51 56 63 63 60 30 42 209 242 237 234 231 237 218 222 228 235 240 244 243 244 243 243 245 248
357 359 359 1 4 6 10 8 12 16 21 23 22 23 14 13 21 23 39 39 48 46 45 36 353 10 287 293 237 226 213 222 220 224 228 230 235 238 240 239 237 239 244
355 358 358 2 5 5 3 7 13 18 21 16 15 16 9 12 18 23 29 32 35 27 30 24 2 288 277 334 333 252 239 231 226 228 233 231 231 237 239 238 240 244 244
355 357 355 359 2 2 1 4 12 15 14 12 7 3 3 11 14 22 26 28 26 15 14 15 5 346 286 303 315 287 275 280 249 237 233 232 234 237 241 241 244 247 248
6 1 0 2 7 5 4 9 12 12 10 4 356 355 359 8 12 14 18 21 25 16 18 14 4 6 10 324 302 293 295 285 264 252 235 230 231 231 235 243 248 246 247
8 6 3 4 6 6 13 11 10 7 6 1 358 359 1 9 11 10 10 13 14 17 25 20 21 28 24 16 2 326 314 298 291 274 258 249 238 231 233 235 240 243 246
7 10 6 4 3 4 4 5 4 8 7 1 1 3 6 8 9 8 10 11 8 14 17 21 29 27 19 32 26 14 351 316 295 286 276 259 255 254 234 227 229 230 233
8 3 5 5 1 358 360 4 13 10 13 10 7 6 10 13 11 13 17 11 9 12 16 21 24 19 16 19 18 20 17 4 342 309 293 285 271 262 255 249 251 229 225
1 6 9 8 4 3 5 4 1 5 12 17 14 10 17 14 16 20 20 22 19 19 22 19 12 4 6 6 7 10 7 358 355 345 319 300 293 278 261 256 256 257 266
3 10 9 9 11 11 9 2 0 1 3 4 10 15 18 18 16 20 19 20 29 29 24 15 10 1 356 353 355 355 349 341 340 342 333 326 315 298 285 263 252 257 253
7 8 4 9 13 13 10 10 8 5 6 2 5 13 18 20 19 20 25 25 21 21 18 19 11 5 357 346 344 346 343 341 337 327 326 324 327 317 296 280 275 263 257
7 3 3 5 6 8 11 11 10 9 7 6 11 12 10 12 18 20 20 21 19 16 15 18 15 14 7 357 348 343 337 333 331 329 326 321 311 304 302 299 287 275 269
352 357 1 1 4 7 9 12 12 13 12 9 9 9 9 15 18 18 17 17 18 14 10 13 14 14 11 4 359 353 350 341 332 323 316 314 313 304 297 297 295 301 288
350 355 0 360 1 3 6 7 7 9 10 9 9 10 10 13 15 17 16 15 15 17 17 10 8 10 9 6 3 357 352 346 338 325 313 302 297 295 293 289 287 287 284
349 350 352 357 359 1 5 3 1 3 5 6 7 8 10 11 9 10 11 12 12 14 17 14 9 5 5 4 4 1 357 349 339 330 321 308 294 286 285 285 284 281 279
340 340 345 346 352 356 358 0 3 2 2 3 4 6 6 6 8 7 7 8 9 11 12 11 10 7 5 2 3 3 357 353 347 338 325 314 300 291 278 278 279 280 282
337 343 344 344 341 349 356 356 358 359 360 2 3 3 4 6 5 5 6 6 6 7 8 7 10 9 6 3 1 359 358 354 352 347 339 325 310 296 284 276 274 276 274
345 343 343 342 340 340 351 353 354 355 357 359 1 2 2 2 3 3 3 2 1 1 2 4 5 5 6 3 3 358 354 353 353 353 350 340 330 312 294 280 271 271 269